This demonstration page uses our WeatherBlox Daily Observations layout. Learn more.

Left ArrowRight Arrow

Hourly Observations for June 1, 2018

Temp ( °F °C ) Dew Point ( °F °C ) Humidity (%) Winds ( mph kmh ) Pressure ( in mb ) Visibility ( mi km ) Precip ( " mm )
12:53 am 00:53 Clear 73 22.8 61 16.1 66 66 S 6 9 29.78 1009 10 16 0.00 0.00
1:53 am 01:53 Clear 71 21.7 61 16.1 71 71 S 5 7 29.78 1009 10 16 0.00 0.00
2:53 am 02:53 Clear 69 20.6 61 16.1 76 76 S 5 7 29.80 1009 10 16 0.00 0.00
3:53 am 03:53 Clear 68 20 61 16.1 78 78 S 5 7 29.79 1009 10 16 0.00 0.00
4:53 am 04:53 Clear 68 20 61 16.1 78 78 S 5 7 29.80 1009 10 16 0.00 0.00
5:53 am 05:53 Clear 67 19.4 62 16.7 84 84 S 7 11 29.80 1009 10 16 0.00 0.00
6:53 am 06:53 Sunny 69 20.6 63 17.2 81 81 SSE 6 9 29.80 1009 10 16 0.00 0.00
7:53 am 07:53 Sunny 72 22.2 65 18.3 79 79 S 7 11 29.80 1009 10 16 0.00 0.00
8:53 am 08:53 Sunny 77 25 69 20.6 77 77 S 10 17 29.81 1009 10 16 0.00 0.00
9:53 am 09:53 Sunny 81 27.2 70 21.1 69 69 S 10 17 29.80 1009 10 16 0.00 0.00
10:53 am 10:53 Sunny 84 28.9 68 20 59 59 SSE 14 22 29.79 1009 10 16 0.00 0.00
11:53 am 11:53 Sunny 86 30 67 19.4 53 53 SSE 17 28 29.77 1008 10 16 0.00 0.00
12:53 pm 12:53 Sunny 87 30.6 65 18.3 48 48 SSE 20 31 29.74 1007 10 16 0.00 0.00
1:53 pm 13:53 Sunny 89 31.7 62 16.7 41 41 SSE 21 33 29.71 1006 10 16 0.00 0.00
2:53 pm 14:53 Sunny 92 33.3 63 17.2 38 38 SE 18 30 29.68 1005 10 16 0.00 0.00
3:53 pm 15:53 Sunny 93 33.9 65 18.3 40 40 S 17 28 29.68 1005 10 16 0.00 0.00
4:53 pm 16:53 Partly Cloudy 94 34.4 67 19.4 41 41 S 21 33 29.65 1004 10 16 0.00 0.00
5:53 pm 17:53 Sunny 92 33.3 70 21.1 49 49 SSE 21 33 29.65 1004 10 16 0.00 0.00
6:53 pm 18:53 Partly Cloudy 91 32.8 72 22.2 54 54 SSE 17 28 29.62 1003 10 16 0.00 0.00
7:53 pm 19:53 Sunny 89 31.7 72 22.2 57 57 S 16 26 29.61 1003 10 16 0.00 0.00
8:53 pm 20:53 Sunny 87 30.6 73 22.8 63 63 SSE 16 26 29.60 1002 10 16 0.00 0.00
9:53 pm 21:53 Clear 85 29.4 73 22.8 68 68 SSE 13 20 29.62 1003 10 16 0.00 0.00
10:53 pm 22:53 Clear 83 28.3 74 23.3 74 74 SSE 16 26 29.62 1003 10 16 0.00 0.00
11:53 pm 23:53 Clear 82 27.8 74 23.3 77 77 ESE 14 22 29.67 1005 10 16 0.00 0.00

Powered by AerisWeather